• In Hungary
  • List of Countries
  • For 7 days
  • Water Temperature
  • Satellite Maps
  • Weather Map
  • News
  • Weather Widgets
  • user-avatar
    Login

    Hourly Weather Puente del Inca

    Today, 14 December, Thursday

    Time Temperature Precipitation Wind Pressure Humidity
    00:00 +4°C° 0 mm 1 mps 490 mmHg 18%
    01:00 +4°C° 0 mm 1 mps 489 mmHg 20%
    02:00 +4°C° 0 mm 1 mps 489 mmHg 19%
    03:00 +3°C° 0 mm 1 mps 488 mmHg 18%
    04:00 +3°C° 0 mm 1 mps 488 mmHg 17%
    05:00 +5°C° 0 mm 1 mps 489 mmHg 15%
    06:00 +6°C° 0 mm 1 mps 491 mmHg 13%
    07:00 +8°C° 0 mm 1 mps 492 mmHg 10%
    08:00 +8°C° 0 mm 2 mps 493 mmHg 10%
    09:00 +9°C° 0 mm 2 mps 493 mmHg 11%
    10:00 +10°C° 0 mm 3 mps 494 mmHg 11%
    11:00 +11°C° 0 mm 3 mps 494 mmHg 11%
    12:00 +12°C° 0 mm 3 mps 494 mmHg 12%
    13:00 +13°C° 0 mm 4 mps 495 mmHg 12%
    14:00 +13°C° 0 mm 4 mps 494 mmHg 13%
    15:00 +13°C° 0 mm 3 mps 494 mmHg 14%
    16:00 +12°C° 0 mm 3 mps 494 mmHg 15%
    17:00 +11°C° 0 mm 3 mps 493 mmHg 17%
    18:00 +10°C° 0 mm 3 mps 492 mmHg 19%
    19:00 +9°C° 0 mm 2 mps 492 mmHg 21%
    20:00 +9°C° 0 mm 2 mps 491 mmHg 22%
    21:00 +9°C° 0 mm 1 mps 491 mmHg 24%
    22:00 +9°C° 0 mm 1 mps 491 mmHg 25%
    23:00 +8°C° 0 mm 1 mps 490 mmHg 24%

    Tomorrow, 15 December, Friday

    Time Temperature Precipitation Wind Pressure Humidity
    00:00 +7°C° 0 mm 1 mps 490 mmHg 23%
    01:00 +7°C° 0 mm 1 mps 489 mmHg 22%
    02:00 +6°C° 0 mm 1 mps 488 mmHg 19%
    03:00 +6°C° 0 mm 1 mps 488 mmHg 17%
    04:00 +5°C° 0 mm 1 mps 487 mmHg 15%
    05:00 +7°C° 0 mm 1 mps 489 mmHg 12%
    06:00 +9°C° 0 mm 1 mps 490 mmHg 10%
    07:00 +11°C° 0 mm 1 mps 491 mmHg 7%
    08:00 +12°C° 0 mm 2 mps 492 mmHg 8%
    09:00 +13°C° 0 mm 2 mps 493 mmHg 9%
    10:00 +13°C° 0 mm 3 mps 493 mmHg 10%
    11:00 +13°C° 0 mm 3 mps 493 mmHg 11%
    12:00 +14°C° 0 mm 3 mps 493 mmHg 11%
    13:00 +15°C° 0 mm 4 mps 493 mmHg 12%
    14:00 +14°C° 0 mm 4 mps 493 mmHg 13%
    15:00 +14°C° 0 mm 4 mps 493 mmHg 14%
    16:00 +13°C° 0 mm 3 mps 492 mmHg 15%
    17:00 +12°C° 0 mm 3 mps 492 mmHg 18%
    18:00 +12°C° 0 mm 2 mps 491 mmHg 22%
    19:00 +10°C° 0 mm 2 mps 490 mmHg 25%
    20:00 +9°C° 0 mm 2 mps 490 mmHg 24%
    21:00 +10°C° 0 mm 1 mps 490 mmHg 24%
    22:00 +9°C° 0 mm 1 mps 489 mmHg 23%
    23:00 +9°C° 0 mm 1 mps 489 mmHg 23%

    Day after tomorrow, 16 December, Saturday

    Time Temperature Precipitation Wind Pressure Humidity
    00:00 +8°C° 0 mm 1 mps 488 mmHg 23%
    01:00 +7°C° 0 mm 2 mps 487 mmHg 23%
    02:00 +6°C° 0 mm 2 mps 487 mmHg 25%
    03:00 +6°C° 0 mm 2 mps 487 mmHg 27%
    04:00 +5°C° 0 mm 2 mps 486 mmHg 28%
    05:00 +5°C° 0 mm 3 mps 487 mmHg 24%
    06:00 +7°C° 0 mm 3 mps 488 mmHg 20%
    07:00 +8°C° 0 mm 3 mps 489 mmHg 16%
    08:00 +8°C° 0 mm 4 mps 489 mmHg 15%
    09:00 +10°C° 0 mm 4 mps 490 mmHg 15%
    10:00 +11°C° 0 mm 4 mps 491 mmHg 15%
    11:00 +11°C° 0 mm 4 mps 491 mmHg 16%
    12:00 +12°C° 0 mm 4 mps 491 mmHg 17%
    13:00 +12°C° 0 mm 5 mps 491 mmHg 18%
    14:00 +11°C° 0 mm 4 mps 491 mmHg 20%
    15:00 +11°C° 0 mm 4 mps 491 mmHg 21%
    16:00 +11°C° 0 mm 4 mps 490 mmHg 23%
    17:00 +10°C° 0 mm 4 mps 490 mmHg 26%
    18:00 +9°C° 0 mm 3 mps 490 mmHg 28%
    19:00 +8°C° 0 mm 2 mps 490 mmHg 30%
    20:00 +8°C° 0 mm 2 mps 490 mmHg 30%
    21:00 +7°C° 0 mm 2 mps 490 mmHg 30%
    22:00 +8°C° 0 mm 1 mps 490 mmHg 30%
    23:00 +6°C° 0 mm 2 mps 490 mmHg 34%

    17 December, Sunday

    Time Temperature Precipitation Wind Pressure Humidity
    00:00 +5°C° 0 mm 2 mps 490 mmHg 38%
    01:00 +5°C° 0 mm 2 mps 489 mmHg 41%
    02:00 +4°C° 0 mm 2 mps 489 mmHg 40%
    03:00 +4°C° 0 mm 2 mps 489 mmHg 39%
    04:00 +3°C° 0 mm 2 mps 489 mmHg 37%
    05:00 +5°C° 0 mm 2 mps 490 mmHg 30%
    06:00 +5°C° 0 mm 3 mps 491 mmHg 22%
    07:00 +8°C° 0 mm 3 mps 492 mmHg 14%
    08:00 +9°C° 0 mm 3 mps 493 mmHg 13%
    09:00 +10°C° 0 mm 4 mps 494 mmHg 12%
    10:00 +11°C° 0 mm 4 mps 495 mmHg 11%
    11:00 +12°C° 0 mm 4 mps 495 mmHg 11%
    12:00 +12°C° 0 mm 4 mps 495 mmHg 11%
    13:00 +13°C° 0 mm 4 mps 495 mmHg 11%
    14:00 +13°C° 0 mm 4 mps 495 mmHg 12%
    15:00 +12°C° 0 mm 4 mps 494 mmHg 12%
    16:00 +12°C° 0 mm 4 mps 494 mmHg 13%
    17:00 +11°C° 0 mm 3 mps 493 mmHg 15%
    18:00 +10°C° 0 mm 3 mps 493 mmHg 17%
    19:00 +9°C° 0 mm 2 mps 492 mmHg 19%
    20:00 +9°C° 0 mm 2 mps 492 mmHg 18%
    21:00 +8°C° 0 mm 2 mps 492 mmHg 17%
    22:00 +8°C° 0 mm 2 mps 492 mmHg 17%
    23:00 +8°C° 0 mm 2 mps 491 mmHg 16%

    18 December, Monday

    Time Temperature Precipitation Wind Pressure Humidity
    00:00 +7°C° 0 mm 2 mps 490 mmHg 15%
    01:00 +7°C° 0 mm 2 mps 490 mmHg 14%
    02:00 +6°C° 0 mm 2 mps 489 mmHg 12%
    03:00 +6°C° 0 mm 2 mps 489 mmHg 11%
    04:00 +5°C° 0 mm 2 mps 488 mmHg 9%
    05:00 +7°C° 0 mm 2 mps 490 mmHg 10%
    06:00 +8°C° 0 mm 2 mps 491 mmHg 11%
    07:00 +10°C° 0 mm 2 mps 492 mmHg 12%
    08:00 +11°C° 0 mm 3 mps 492 mmHg 12%
    09:00 +11°C° 0 mm 3 mps 493 mmHg 13%
    10:00 +12°C° 0 mm 3 mps 493 mmHg 13%
    11:00 +13°C° 0 mm 3 mps 494 mmHg 14%
    12:00 +13°C° 0 mm 4 mps 494 mmHg 14%
    13:00 +13°C° 0 mm 4 mps 494 mmHg 15%
    14:00 +13°C° 0 mm 3 mps 493 mmHg 17%
    15:00 +13°C° 0 mm 3 mps 493 mmHg 18%
    16:00 +12°C° 0 mm 3 mps 493 mmHg 20%
    17:00 +11°C° 0 mm 3 mps 492 mmHg 22%
    18:00 +10°C° 0 mm 2 mps 492 mmHg 25%
    19:00 +10°C° 0 mm 2 mps 492 mmHg 27%
    20:00 +9°C° 0 mm 2 mps 492 mmHg 28%
    21:00 +9°C° 0 mm 2 mps 492 mmHg 29%
    22:00 +9°C° 0 mm 2 mps 492 mmHg 30%
    23:00 +8°C° 0 mm 2 mps 491 mmHg 30%

    19 December, Tuesday

    Time Temperature Precipitation Wind Pressure Humidity
    00:00 +8°C° 0 mm 2 mps 491 mmHg 31%
    01:00 +7°C° 0 mm 2 mps 490 mmHg 31%
    02:00 +7°C° 0 mm 2 mps 490 mmHg 31%
    03:00 +6°C° 0 mm 2 mps 489 mmHg 30%
    04:00 +6°C° 0 mm 1 mps 489 mmHg 30%
    05:00 +7°C° 0 mm 1 mps 490 mmHg 27%
    06:00 +8°C° 0 mm 1 mps 491 mmHg 24%
    07:00 +9°C° 0 mm 1 mps 491 mmHg 20%
    08:00 +9°C° 0 mm 2 mps 492 mmHg 19%
    09:00 +10°C° 0 mm 2 mps 493 mmHg 17%
    10:00 +12°C° 0 mm 2 mps 493 mmHg 16%
    11:00 +12°C° 0 mm 3 mps 493 mmHg 16%
    12:00 +13°C° 0 mm 3 mps 494 mmHg 16%
    13:00 +14°C° 0 mm 3 mps 494 mmHg 16%
    14:00 +14°C° 0 mm 3 mps 494 mmHg 18%
    15:00 +13°C° 0 mm 3 mps 494 mmHg 20%
    16:00 +13°C° 0 mm 3 mps 493 mmHg 23%
    17:00 +12°C° 0.1 mm 3 mps 493 mmHg 27%
    18:00 +12°C° 0.1 mm 2 mps 493 mmHg 32%
    19:00 +11°C° 0.1 mm 1 mps 492 mmHg 37%
    20:00 +10°C° 0.1 mm 2 mps 492 mmHg 42%
    21:00 +9°C° 0.1 mm 2 mps 492 mmHg 47%
    22:00 +9°C° 0.1 mm 2 mps 491 mmHg 52%
    23:00 +8°C° 0 mm 2 mps 491 mmHg 54%
    Show more